Location: Hac?musa Deresi
(39.1694°N, 32.2508°E)
Time: 23:22:23
(UTC+00:00)

Cosmos 1869 - Pass Details

Date: 22 April 2026
Orbit: 444 x 468 km, 82.5° (Epoch: 9 May)

Event Time Altitude Azimuth Distance (km) Brightness Sun altitude
Exits shadow 18:32:42 54° 39° (NE) 575 3.3 -21.1°
Drops below altitude 10° 18:35:38 10° 13° (NNE) 1,633 6.0 -21.5°
Sets 18:37:44 0° 10° (N) 2,516 7.1 -21.8°
